Tracking 18874 objects as of 17-Dec-2017
HD Live streaming from Space Station
objects crossing your sky now

FLOCK 3M 3

Track FLOCK 3M 3 now!
10-day predictions
FLOCK 3M 3 is classified as:


NORAD ID: 42996
Int'l Code: 2017-068K
Perigee: 505.6 km
Apogee: 531.1 km
Inclination: 97.3 °
Period: 94.8 minutes
Semi major axis: 6889 km
RCS: Unknown
Launch date: October 31, 2017
Source: United States (US)
Launch site: AIR FORCE WESTERN TEST RANGE (AFWTR)
aabbcc
Your satellite tracking list
Your tracking list is empty




NASA's NSSDC Master Catalog

Two Line Element Set (TLE):
1 42996U 17068K   17350.88251141  .00000838  00000-0  44050-4 0  9994
2 42996  97.3397 103.7060 0018511  68.1841 292.1361 15.18215853  6976
Source of the keplerian elements: AFSPC